{"data":{"norad_id":62977,"epoch":"2026-09-22T22:02:34.702080Z","epoch_age_seconds":106565,"freshness":"FRESH","line1":"1 62977U 25030G   26265.91845720 -.00000095  00000+0  62712-4 0  9994","line2":"2 62977  50.0051 245.0908 0000578  44.2644 315.8274 13.29328837 78861","mean_motion":13.29328837,"eccentricity":5.78e-5,"inclination_deg":50.0051,"raan_deg":245.0908,"arg_perigee_deg":44.2644,"mean_anomaly_deg":315.8274,"bstar":6.2712e-5,"rev_number":7886,"period_min":108.3253413241,"perigee_km":1148.8607763862,"apogee_km":1149.730947625,"semimajor_km":7527.4328620056,"source":"CELESTRAK","updated_at":"2026-09-23T09:00:21.736730Z"}}